Location: Manchester NH
(43.0000°N, 71.5000°W)
Time: 11:05:20
(UTC-04:00)

Envisat - Pass Details

Date: 24 April 2019
Orbit: 764 x 766 km, 98.2° (Epoch: 21 May)

Event Time Altitude Azimuth Distance (km) Brightness Sun altitude
Rises 20:54:13 0° 223° (SW) 3,222 6.4 -13.2°
Reaches altitude 10° 20:58:55 10° 263° (W) 2,304 6.2 -14.0°
Maximum altitude 20:59:49 10° 273° (W) 2,276 6.4 -14.1°
Drops below altitude 10° 21:00:43 10° 283° (WNW) 2,307 6.7 -14.2°
Sets 21:05:27 0° 324° (NW) 3,241 7.7 -15.0°
